Home > Weather > Vöcklabruck > Past weeks

Flag for Austria Past Weather in Vöcklabruck, Upper Austria, Austria — Yesterday and Last 2 Weeks

Now
81 °F

Warm.


Feels Like: 82 °F
Forecast: 61 / 80 °F
Wind: 2 mph from East

Location: Kremsmuenster

Current Time: Jul 23, 2016 at 3:15:02 PM

Latest Report: Jul 23, 2016 at 2:00 PM


Visibility: N/A

Pressure: 29.97 "Hg

Humidity: 53%

Dew Point: 62 °F

Location of VöcklabruckLocation

Past Weather in Vöcklabruck — Graph

°F

Vöcklabruck Temperature Yesterday

Maximum temperature yesterday: 83 °F (at 3:00 PM)
Minimum temperature yesterday: 66 °F (at 4:00 AM)
Average temperature yesterday: 72 °F

High & Low Weather Summary for the Past Weeks

 TemperatureHumidityPressure
High91 °F (Jul 11, 3:00 PM)93% (Jul 12, 5:00 AM)30.31 "Hg (Jul 12, 5:00 AM)
Low52 °F (Jul 14, 5:00 AM)30% (Jul 20, 5:00 PM)29.80 "Hg (Jul 11, 6:00 PM)
Average68 °F71%30.04 "Hg
* Reported Jul 8 1:00 PM — Jul 23 1:00 PM, Vöcklabruck, Weather by CustomWeather, © 2016

Note: Actual official high and low records may vary slightly from our data, if they occured in-between our weather recording intervals... More about our weather records

Advertising

Vöcklabruck Weather History for the Previous 24 Hours

Scroll right to see more
 ConditionsComfort  
Time TempWeatherWind HumidityBarometerVisibility
1:00 PM
Sat, Jul 23
80 °FWarm.1 mph55%29.98 "HgN/A
12:00 PM78 °FWarm.1 mph59%29.99 "HgN/A
11:00 AM76 °FScattered clouds.2 mph66%30.01 "Hg16 mi
10:00 AM73 °FMild.1 mph75%30.01 "HgN/A
9:00 AM70 °FMild.No wind81%30.02 "HgN/A
8:00 AM67 °FPartly sunny.3 mph84%30.03 "Hg12 mi
7:00 AM64 °FScattered clouds.5 mph89%30.03 "Hg9 mi
6:00 AM64 °FMild.3 mph90%30.02 "HgN/A
5:00 AM64 °FMild.2 mph90%30.01 "HgN/A
4:00 AM65 °FMild.2 mph90%30.00 "HgN/A
3:00 AM65 °FMild.1 mph90%30.00 "HgN/A
2:00 AM65 °FMild.1 mph89%30.00 "HgN/A
1:00 AM65 °FMild.No wind91%30.00 "HgN/A
12:00 AM65 °FMild.1 mph91%30.00 "HgN/A
11:00 PM
Fri, Jul 22
66 °FMild.5 mph87%29.99 "HgN/A
10:00 PM67 °FFog.2 mph85%29.97 "HgN/A
9:00 PM70 °FMild.8 mph71%29.97 "HgN/A
8:00 PM77 °FOvercast.1 mph56%29.94 "Hg7 mi
7:00 PM79 °FWarm.5 mph54%29.91 "HgN/A
6:00 PM81 °FWarm.3 mph51%29.89 "HgN/A
5:00 PM83 °FScattered clouds.3 mph49%29.90 "Hg22 mi
4:00 PM82 °FWarm.3 mph52%29.92 "HgN/A
3:00 PM83 °FWarm.2 mph53%29.92 "HgN/A
Weather by CustomWeather, © 2016

See weather overviewHow to use our weather pages